{"data":{"norad_id":69672,"epoch":"2026-09-20T02:15:09.636192Z","epoch_age_seconds":56749,"freshness":"FRESH","line1":"1 69672U 26143Z   26263.09386153  .00011873  00000+0  36943-3 0  9997","line2":"2 69672  97.2851 306.3391 0000939 118.8134 241.3203 15.33451669 15088","mean_motion":15.33451669,"eccentricity":9.39e-5,"inclination_deg":97.2851,"raan_deg":306.3391,"arg_perigee_deg":118.8134,"mean_anomaly_deg":241.3203,"bstar":0.00036943,"rev_number":1508,"period_min":93.905796257606,"perigee_km":464.88071259288,"apogee_km":466.16595200329,"semimajor_km":6843.6603322981,"source":"CELESTRAK","updated_at":"2026-09-20T09:00:44.251658Z"}}